Location: AstroGeek's Observatory
(41.9520°N, 70.9880°W)
Time: 07:09:07
(UTC-04:00)

ISS - All Passes

Search period start: 30 May 2017 00:00
Search period end: 09 June 2017 00:00
Orbit: 402 x 408 km, 51.6° (Epoch: 30 May)

Date Brightness Start Highest point End Pass type
(mag) Time Alt. Az. Time Alt. Az. Time Alt. Az.
30 May - 00:12:46 10° NW 00:15:29 23° NNE 00:18:10 10° ENE visible
30 May - 01:48:58 10° WNW 01:52:15 74° SW 01:55:31 10° SE visible
30 May - 18:29:24 10° SSW 18:32:13 27° SE 18:35:03 10° ENE daylight
30 May - 20:05:28 10° W 20:08:36 40° NNW 20:11:45 10° NE daylight
30 May - 21:43:34 10° NW 21:45:46 16° N 21:47:57 10° NNE visible
30 May - 23:20:48 10° NW 23:23:11 18° NNE 23:25:35 10° ENE visible
31 May - 00:56:55 10° NW 01:00:12 60° NNE 01:03:26 10° ESE visible
31 May - 02:34:14 10° W 02:36:22 16° SW 02:38:30 10° S night (unlit)
31 May - 17:38:26 10° SSE 17:40:20 15° SE 17:42:15 10° E daylight
31 May - 19:13:11 10° WSW 19:16:28 68° NNW 19:19:46 10° NE daylight
31 May - 20:50:58 10° WNW 20:53:26 19° NNW 20:55:53 10° NE visible
31 May - 22:28:42 10° NW 22:30:51 16° N 22:32:59 10° NE visible
01 Jun - 00:04:57 10° NW 00:08:02 36° NNE 00:11:07 10° E visible
01 Jun - 01:41:33 10° WNW 01:44:29 30° SW 01:47:23 10° SSE visible
01 Jun - 18:21:08 10° SW 18:24:24 66° SE 18:27:41 10° ENE daylight
01 Jun - 19:58:22 10° WNW 20:01:08 24° NNW 20:03:54 10° NE daylight
01 Jun - 21:36:27 10° NW 21:38:29 15° N 21:40:31 10° NE visible
01 Jun - 23:12:59 10° NW 23:15:49 25° NNE 23:18:37 10° E visible
02 Jun - 00:49:15 10° WNW 00:52:30 58° SW 00:55:43 10° SE visible
02 Jun - 17:29:23 10° SSW 17:32:23 34° SE 17:35:25 10° ENE daylight
02 Jun - 19:05:49 10° W 19:08:52 34° NNW 19:11:56 10° NE daylight
02 Jun - 20:43:58 10° NW 20:46:05 16° N 20:48:13 10° NE visible
02 Jun - 22:20:59 10° NW 22:23:30 20° NNE 22:26:01 10° ENE visible
02 Jun - 23:57:07 10° NW 00:00:25 75° NNE 00:03:41 10° ESE visible
03 Jun - 01:34:56 10° WSW 01:36:30 13° SW 01:38:03 10° SSW night (unlit)
03 Jun - 16:38:06 10° S 16:40:27 18° SE 16:42:48 10° E daylight
03 Jun - 18:13:26 10° WSW 18:16:40 54° NNW 18:19:56 10° NE daylight
03 Jun - 19:51:21 10° WNW 19:53:42 18° NNW 19:56:04 10° NE daylight
03 Jun - 21:28:55 10° NNW 21:31:08 17° N 21:33:22 10° NE visible
03 Jun - 23:05:05 10° NW 23:08:16 43° NNE 23:11:25 10° ESE visible
04 Jun - 00:41:53 10° W 00:44:35 24° SW 00:47:17 10° S visible
04 Jun - 17:21:15 10° SW 17:24:32 83° SE 17:27:51 10° ENE daylight
04 Jun - 18:58:42 10° WNW 19:01:22 22° NNW 19:04:01 10° NE daylight
04 Jun - 20:36:40 10° NW 20:38:44 15° N 20:40:47 10° NE daylight
04 Jun - 22:13:04 10° NW 22:16:01 29° NNE 22:18:56 10° E visible
04 Jun - 23:49:26 10° WNW 23:52:36 45° SW 23:55:45 10° SSE visible
05 Jun - 16:29:19 10° SSW 16:32:28 43° SE 16:35:37 10° ENE daylight
05 Jun - 18:06:05 10° W 18:09:02 29° NNW 18:12:00 10° NE daylight
05 Jun - 19:44:14 10° NW 19:46:18 15° N 19:48:23 10° NE daylight
05 Jun - 21:21:04 10° NW 21:23:41 21° NNE 21:26:19 10° ENE visible
05 Jun - 22:57:13 10° NW 23:00:32 87° SW 23:03:49 10° SE visible
06 Jun - 00:36:23 10° SW 00:36:30 10° SW 00:36:38 10° SW visible
06 Jun - 15:37:48 10° S 15:40:27 23° SE 15:43:08 10° E daylight
06 Jun - 17:13:35 10° WSW 17:16:47 45° NNW 17:19:58 10° NE daylight
06 Jun - 18:51:37 10° NW 18:53:52 17° N 18:56:08 10° NNE daylight
06 Jun - 20:28:59 10° NNW 20:31:18 18° N 20:33:38 10° NE daylight
06 Jun - 22:05:07 10° NW 22:08:21 52° NNE 22:11:35 10° ESE visible
06 Jun - 23:42:10 10° W 23:44:35 19° SW 23:47:00 10° S visible
07 Jun - 14:47:04 10° SSE 14:48:31 12° SE 14:49:57 10° ESE daylight
07 Jun - 16:21:17 10° WSW 16:24:35 79° NNW 16:27:53 10° NE daylight
07 Jun - 17:58:56 10° WNW 18:01:28 20° NNW 18:04:01 10° NE daylight
07 Jun - 19:36:46 10° NW 19:38:52 16° N 19:40:58 10° NE daylight
07 Jun - 21:13:03 10° NW 21:16:06 33° NNE 21:19:07 10° E visible
07 Jun - 22:49:33 10° WNW 22:52:36 35° SW 22:55:37 10° SSE visible
08 Jun - 15:29:13 10° SW 15:32:26 55° SE 15:35:40 10° ENE daylight
08 Jun - 17:06:14 10° W 17:09:06 26° NNW 17:11:57 10° NE daylight
08 Jun - 18:44:22 10° NW 18:46:24 15° N 18:48:27 10° NE daylight
08 Jun - 20:21:01 10° NW 20:23:45 24° NNE 20:26:30 10° ENE daylight
08 Jun - 21:57:13 10° WNW 22:00:30 69° SW 22:03:45 10° SE visible
